Regional Weather Roundup
Issued by NWS Key West, FL

Home | Current Version | Previous Version | Text Only | Print | Product List | Glossary On
Versions: 1 2 3 4 5 6 7 8 9 10 11 12 13 14 15 16 17 18 19 20 21 22 23 24 25 26 27
000
ASUS42 KKEY 310410
RWRKEY

FLORIDA KEYS REGIONAL WEATHER ROUNDUP
NATIONAL WEATHER SERVICE KEY WEST FLORIDA
1200 AM EDT SAT JUL 31 2021

...FLORIDA KEYS...

CITY           SKY/WX    TMP DP  RH WIND       PRES   REMARKS
KEY WEST       CLEAR     85  75  72 E8        30.08S HX  93
MARATHON       CLEAR     83  75  77 SE6       30.08S HX  90

...SOUTH FLORIDA...

CITY           SKY/WX    TMP DP  RH WIND       PRES   REMARKS
HOMESTEAD      CLEAR     81  77  89 CALM      30.09F
WEST KENDALL   CLEAR     84  75  74 CALM      30.10S HX  92
MIAMI          PTCLDY    85  76  74 S6        30.10S HX  94
OPA LOCKA      MOCLDY    83  76  79 S3        30.10F HX  91
PEMBROKE PINES MOCLDY    84  75  74 S3        30.11S HX  92
FT LAUDERDALE  MOCLDY    84  77  79 S5        30.09S HX  94
FT LAUD EXEC   PTCLDY    83  76  79 SW3       30.09S HX  91
POMPANO BEACH  PTCLDY    85  75  72 CALM      30.09S HX  93
BOCA RATON     NOT AVBL
WEST PALM BCH  MOCLDY    85  75  72 S5        30.10R HX  93

...SOUTHWEST FLORIDA...

CITY           SKY/WX    TMP DP  RH WIND       PRES   REMARKS
MARCO ISLAND   NOT AVBL
NAPLES         CLEAR     84  76  76 CALM      30.08S HX  93
FT MYERS-SW AP CLEAR     82  73  74 CALM      30.08S
FORT MYERS     CLEAR     84  74  71 CALM      30.07F HX  91

...ADJACENT COASTAL WATERS...

STATION/POSITION TIME  SKY/WX   TEMP    WIND        PRES    WAVE
                                AIR SEA DIR/SP/G            HT/PER
                 (UTC)          (F)     (DEG/KT/KT) (MB)    (FT/S)
PULASKI SHOAL LT NOT AVBL
SAND KEY         0350            85     110/ 11/ 13 1019.0R
SOMBRERO KEY     0350                   120/  8/ 10 1017.8R
LONG KEY         0350                               1018.3F
FOWEY ROCKS      0400            85 86  150/  6/  7 1019.3F
SATAN SHL BUOY   0330            85 87                N/A     2/ 5
LOOP CURR BUOY   0300            85 87   90/  6/  8 1018.8R
PULLEY RDG BUOY  0356               88                N/A     1

...INTERNATIONAL WEATHER...

CITY           SKY/WX    TMP DP  RH WIND       PRES   REMARKS
NASSAU           N/A     82  73  74 SE7       30.13S
HAVANA         PTCLDY    79  73  83 E3        30.06S
VARADERO       PTCLDY    75  75 100 SE3       30.09S
CANCUN         PTCLDY    84  79  84 NE6       30.06R HX  96
COZUMEL          N/A    N/A N/A N/A MISG        N/A
KINGSTON       PTCLDY    84  73  70 SE14      30.00S HX  91

$$



USA.gov is the U.S. government's official web portal to all federal, state and local government web resources and services.